Location: ??????
(42.0089°N, 44.3281°E)
Time: 00:06:53
(UTC+00:00)

Cosmos 2251 Rocket - Pass Details

Date: 07 June 2022
Orbit: 764 x 791 km, 74.0° (Epoch: 03 July)

Event Time Altitude Azimuth Distance (km) Brightness Sun altitude
Rises 20:20:08 0° 350° (N) 3,257 8.2 -24.5°
Reaches altitude 10° 20:22:56 10° 4° (N) 2,331 7.0 -24.6°
Maximum altitude 20:27:17 25° 59° (ENE) 1,523 5.2 -24.7°
Enters shadow 20:29:25 20° 94° (E) 1,753 5.2 -24.8°
